Weather History for Wadesboro, NC

Change the Weather History Date:

Thursday, February 16, 2012

  Actual Average (KCLT) Record (KCLT)
Temperature  
Mean Temperature 48 °F 44 °F  
Max Temperature 57 °F 55 °F 76 °F (1976)
Min Temperature 39 °F 33 °F 11 °F (1905)
Degree Days  
Heating Degree Days 17 21  
Month to date heating degree days 358  
Since 1 July heating degree days 2465  
Cooling Degree Days 0 0  
Month to date cooling degree days 0  
Year to date cooling degree days 0  
Moisture  
Dew Point 45 °F    
Average Humidity 86    
Maximum Humidity 100    
Minimum Humidity 58    
Precipitation  
Precipitation 0.03 in 0.12 in 2.28 in (1942)
Month to date precipitation 1.78  
Year to date precipitation 5.19  
Snow  
Snow 0.00 in 0.00 in 8.70 in (1969)
Month to date snowfall 0.7  
Since 1 July snowfall 3.2  
Snow Depth -    
Sea Level Pressure  
Sea Level Pressure 30.13 in    
Wind  
Wind Speed 2 mph (SE)    
Max Wind Speed 10 mph    
Max Gust Speed -    
Visibility 7 miles    
Events Fog , Rain    
T = Trace of Precipitation, MM = Missing Value Source: NWS Daily Summary

Daily Weather History Graph

Daily Weather History Graph

Search for Another Location

Airport:

Trip Planner

Search our weather history database for the weather conditions in past years. The results will help you decide how hot, cold, wet, or windy it might be!

Date:

Astronomy

Feb. 16, 2012 Rise Set
Actual Time 7:05 AM EST 6:03 PM EST
Civil Twilight 6:39 AM EST 6:29 PM EST
Nautical Twilight 6:10 AM EST 6:59 PM EST
Astronomical Twilight 5:40 AM EST 7:28 PM EST
Moon 2:52 AM EST (2/16) 1:01 PM EST (2/16)
Length of Visible Light 11h 49m
Length of Day
10h 57m
Waning Crescent, 28% of the Moon is Illuminated
Feb 16
Waning Crescent
Feb 21
New
Feb 29
First Quarter
Mar 8
Full
Mar 14
Last Quarter

Hourly Weather History & Observations

Time (EST) Temp. Dew Point Humidity Pressure Visibility Wind Dir Wind Speed Gust Speed Precip Events Conditions
12:35 AM 50.0 °F 35.6 °F 58% 30.25 in 10.0 mi SSE 8.1 mph - N/A   Clear
12:55 AM 50.0 °F 35.6 °F 58% 30.25 in 10.0 mi SE 4.6 mph - N/A   Clear
1:35 AM 48.2 °F 37.4 °F 66% 30.24 in 10.0 mi SE 4.6 mph - N/A   Clear
1:55 AM 46.4 °F 35.6 °F 66% 30.24 in 10.0 mi Calm Calm - N/A   Clear
2:15 AM 48.2 °F 37.4 °F 66% 30.24 in 10.0 mi Calm Calm - N/A   Clear
2:35 AM 44.6 °F 37.4 °F 76% 30.23 in 10.0 mi Calm Calm - N/A   Clear
3:15 AM 42.8 °F 37.4 °F 81% 30.22 in 10.0 mi Calm Calm - N/A   Clear
3:35 AM 41.0 °F 35.6 °F 81% 30.23 in 10.0 mi Calm Calm - N/A   Clear
3:55 AM 39.2 °F 35.6 °F 87% 30.22 in 10.0 mi Calm Calm - N/A   Clear
4:15 AM 42.8 °F 37.4 °F 81% 30.22 in 10.0 mi Calm Calm - N/A   Clear
4:35 AM 41.0 °F 35.6 °F 81% 30.22 in 10.0 mi Calm Calm - N/A   Mostly Cloudy
4:55 AM 41.0 °F 37.4 °F 87% 30.23 in 10.0 mi Calm Calm - N/A   Overcast
5:15 AM 42.8 °F 37.4 °F 81% 30.23 in 10.0 mi Calm Calm - N/A   Overcast
5:35 AM 42.8 °F 37.4 °F 81% 30.23 in 10.0 mi Calm Calm - N/A   Overcast
5:55 AM 42.8 °F 39.2 °F 87% 30.24 in 10.0 mi Calm Calm - N/A   Overcast
6:15 AM 42.8 °F 37.4 °F 81% 30.24 in 10.0 mi Calm Calm - N/A   Mostly Cloudy
6:35 AM 42.8 °F 37.4 °F 81% 30.23 in 10.0 mi Calm Calm - N/A   Overcast
7:15 AM 42.8 °F 37.4 °F 81% 30.23 in 10.0 mi Calm Calm - N/A   Overcast
7:35 AM 42.8 °F 37.4 °F 81% 30.24 in 10.0 mi Calm Calm - N/A   Overcast
7:55 AM 44.6 °F 37.4 °F 76% 30.24 in 10.0 mi Calm Calm - N/A   Overcast
8:15 AM 44.6 °F 37.4 °F 76% 30.22 in 10.0 mi Calm Calm - N/A   Overcast
8:35 AM 44.6 °F 41.0 °F 87% 30.23 in 10.0 mi Calm Calm - N/A   Overcast
8:55 AM 46.4 °F 41.0 °F 81% 30.21 in 10.0 mi Calm Calm - N/A   Overcast
9:15 AM 46.4 °F 41.0 °F 81% 30.17 in 10.0 mi Calm Calm - N/A   Overcast
9:35 AM 48.2 °F 41.0 °F 76% 30.19 in 10.0 mi Calm Calm - N/A   Light Drizzle
9:55 AM 50.0 °F 41.0 °F 71% 30.17 in 10.0 mi Calm Calm - N/A Rain Light Rain
10:15 AM 50.0 °F 41.0 °F 71% 30.17 in 10.0 mi SE 3.5 mph - N/A Rain Light Rain
10:35 AM 50.0 °F 41.0 °F 71% 30.15 in 10.0 mi ESE 6.9 mph - N/A   Overcast
10:55 AM 51.8 °F 42.8 °F 71% 30.14 in 10.0 mi SE 9.2 mph - N/A   Overcast
11:15 AM 51.8 °F 44.6 °F 76% 30.13 in 10.0 mi SSE 10.4 mph - N/A   Overcast
11:35 AM 51.8 °F 44.6 °F 76% 30.13 in 10.0 mi SSE 5.8 mph - N/A   Overcast
12:15 PM 53.6 °F 46.4 °F 77% 30.11 in 10.0 mi SSE 4.6 mph - N/A Rain Light Rain
12:35 PM 53.6 °F 48.2 °F 82% 30.11 in 7.0 mi SSE 3.5 mph - N/A   Overcast
12:55 PM 53.6 °F 48.2 °F 82% 30.09 in 10.0 mi Calm Calm - N/A   Overcast
1:15 PM 53.6 °F 50.0 °F 88% 30.08 in 7.0 mi Calm Calm - N/A   Light Drizzle
1:35 PM 53.6 °F 51.8 °F 94% 30.06 in 5.0 mi Calm Calm - N/A   Overcast
1:55 PM 53.6 °F 51.8 °F 94% 30.05 in 5.0 mi Calm Calm - N/A Rain Light Rain
2:15 PM 55.4 °F 51.8 °F 88% 30.03 in 10.0 mi Calm Calm - N/A   Overcast
2:35 PM 55.4 °F 51.8 °F 88% 30.03 in 10.0 mi Calm Calm - N/A   Overcast
2:55 PM 55.4 °F 51.8 °F 88% 30.03 in 10.0 mi Calm Calm - N/A   Overcast
3:15 PM 57.2 °F 51.8 °F 82% 30.02 in 7.0 mi Calm Calm - N/A   Overcast
3:35 PM 55.4 °F 53.6 °F 94% 30.01 in 4.0 mi Calm Calm - 0.01 in Rain Light Rain
4:15 PM 55.4 °F 53.6 °F 94% 30.02 in 3.0 mi NNW 5.8 mph - N/A Rain Rain
4:35 PM 53.6 °F 53.6 °F 100% 30.02 in 2.0 mi NNW 8.1 mph - 0.02 in Rain Rain
4:55 PM 53.6 °F 51.8 °F 94% 30.03 in 1.8 mi NNW 8.1 mph - 0.02 in   Light Drizzle
5:15 PM 51.8 °F 51.8 °F 100% 30.03 in 1.5 mi NNW 5.8 mph - N/A   Overcast
5:35 PM 51.8 °F 51.8 °F 100% 30.03 in 1.5 mi Calm Calm - N/A Rain Light Rain
5:55 PM 51.8 °F 51.8 °F 100% 30.03 in 1.5 mi Calm Calm - N/A   Overcast
6:15 PM 51.8 °F 51.8 °F 100% 30.03 in 2.0 mi Calm Calm - N/A   Overcast
6:35 PM 51.8 °F 51.8 °F 100% 30.03 in 2.5 mi Calm Calm - N/A   Overcast
7:15 PM 51.8 °F 50.0 °F 94% 30.03 in 1.5 mi Calm Calm - N/A   Overcast
7:35 PM 51.8 °F 50.0 °F 94% 30.05 in 2.5 mi Calm Calm - N/A   Overcast
7:55 PM 51.8 °F 51.8 °F 100% 30.05 in 2.0 mi Calm Calm - N/A   Overcast
8:15 PM 51.8 °F 51.8 °F 100% 30.06 in 2.5 mi Calm Calm - N/A   Overcast
8:35 PM 51.8 °F 50.0 °F 94% 30.05 in 2.5 mi Calm Calm - N/A   Overcast
8:55 PM 51.8 °F 50.0 °F 94% 30.05 in 2.5 mi Calm Calm - N/A   Overcast
9:15 PM 50.0 °F 50.0 °F 100% 30.06 in 1.8 mi Calm Calm - N/A   Mostly Cloudy
9:35 PM 48.2 °F 48.2 °F 100% 30.05 in 0.2 mi Calm Calm - N/A Fog Fog
9:55 PM 50.0 °F 50.0 °F 100% 30.05 in 0.5 mi Calm Calm - N/A Fog Fog
10:15 PM 50.0 °F 50.0 °F 100% 30.07 in 0.2 mi Calm Calm - N/A Fog Fog
10:35 PM 50.0 °F 50.0 °F 100% 30.06 in 0.2 mi Calm Calm - N/A Fog Fog
10:55 PM 50.0 °F 50.0 °F 100% 30.06 in 0.2 mi Calm Calm - N/A Fog Fog
11:15 PM 50.0 °F 50.0 °F 100% 30.05 in 0.2 mi Calm Calm - N/A Fog Fog
11:35 PM 50.0 °F 50.0 °F 100% 30.05 in 0.2 mi Calm Calm - N/A Fog Fog
11:55 PM 50.0 °F 50.0 °F 100% 30.04 in 0.2 mi Calm Calm - N/A Fog Fog